Palma de Mallorca, Spain

5:21 PM CEST on April 30, 2017 (GMT +0200)
Palma De Mallorca

Weather History for LEPA - November, 2012

Change the Weather History Date:

Sunday, November 4, 2012

  Actual Average Record
Temperature  
Mean Temperature 68 °F -  
Max Temperature 71 °F 63 °F 75 °F (1998)
Min Temperature 64 °F 45 °F 41 °F (2000)
Cooling Degree Days 2    
Growing Degree Days 18 (Base 50)    
Moisture  
Dew Point 66 °F    
Average Humidity 91    
Maximum Humidity 100    
Minimum Humidity 75    
Precipitation  
Precipitation 0.00 in 0.06 in - ()
Sea Level Pressure  
Sea Level Pressure 29.75 in    
Wind  
Wind Speed 5 mph ()    
Max Wind Speed 16 mph    
Max Gust Speed -    
Visibility 5.7 miles    
Events Rain    
Averages and records for this station are not official NWS values.
T = Trace of Precipitation, MM = Missing Value Source: Averaged Metar Reports

Daily Weather History Graph

Daily Weather History Graph

Search for Another Location

Airport or City:

Trip Planner

Search our weather history database for the weather conditions in past years. The results will help you decide how hot, cold, wet, or windy it might be!

Date:

Astronomy

Nov. 04, 2012 Rise Set
Actual Time 7:21 AM CET 5:43 PM CET
Civil Twilight 6:52 AM CET 6:11 PM CET
Nautical Twilight 6:20 AM CET 6:43 PM CET
Astronomical Twilight 5:49 AM CET 7:15 PM CET
Moon 10:07 PM CET (11/4) 11:54 AM CET (11/4)
Length of Visible Light 11h 18m
Length of Day
10h 22m
Waning Gibbous, 74% of the Moon is Illuminated
Nov 4
Waning Gibbous
Nov 7
Last Quarter
Nov 13
New
Nov 20
First Quarter
Nov 28
Full

Hourly Weather History & Observations

Time (CET) Temp. Dew Point Humidity Pressure Visibility Wind Dir Wind Speed Gust Speed Precip Events Conditions
12:00 AM 66.2 °F 64.4 °F 94% 29.80 in 6.2 mi Variable 2.3 mph - N/A   Mostly Cloudy
12:30 AM 66.2 °F 66.2 °F 100% 29.80 in 6.2 mi Calm Calm - N/A   Mostly Cloudy
1:00 AM 66 °F 63 °F 87% 29.81 in 9 mi South 4.6 mph - -   Partly Cloudy
1:00 AM 66.2 °F 66.2 °F 100% 29.80 in 6.2 mi South 3.5 mph - N/A   Scattered Clouds
1:30 AM 66.2 °F 66.2 °F 100% 29.80 in 6.2 mi South 6.9 mph - N/A   Scattered Clouds
2:00 AM 66.2 °F 66.2 °F 100% 29.80 in 6.2 mi SSW 6.9 mph - N/A   Partly Cloudy
2:30 AM 66.2 °F 66.2 °F 100% 29.80 in 6.2 mi SSW 6.9 mph - N/A   Partly Cloudy
3:00 AM 68.0 °F 66.2 °F 94% 29.80 in 6.2 mi SSW 5.8 mph - N/A   Partly Cloudy
3:30 AM 66.2 °F 66.2 °F 100% 29.77 in 6.2 mi SSW 3.5 mph - N/A   Partly Cloudy
4:00 AM 66.2 °F 64.4 °F 94% 29.77 in 6.2 mi South 1.2 mph - N/A   Partly Cloudy
4:30 AM 66.2 °F 64.4 °F 94% 29.77 in 6.2 mi SSE 3.5 mph - N/A   Partly Cloudy
5:00 AM 66.2 °F 64.4 °F 94% 29.80 in 6.2 mi South 3.5 mph - N/A   Partly Cloudy
5:30 AM 66.2 °F 66.2 °F 100% 29.80 in 5.6 mi SSE 3.5 mph - N/A   Scattered Clouds
6:00 AM 68.0 °F 66.2 °F 94% 29.77 in 5.6 mi South 5.8 mph - N/A   Mostly Cloudy
6:30 AM 68.0 °F 66.2 °F 94% 29.77 in 5.6 mi SSW 2.3 mph - N/A   Mostly Cloudy
7:00 AM 67 °F 64 °F 87% 29.78 in 4 mi SSW 4.6 mph - -   Mist
7:00 AM 68.0 °F 66.2 °F 94% 29.77 in 3.7 mi SSW 2.3 mph - N/A   Mostly Cloudy
7:30 AM 68.0 °F 66.2 °F 94% 29.77 in 2.8 mi South 2.3 mph - N/A   Mostly Cloudy
8:00 AM 66.2 °F 66.2 °F 100% 29.77 in 3.1 mi South 2.3 mph - N/A   Mostly Cloudy
8:30 AM 68.0 °F 68.0 °F 100% 29.80 in 3.1 mi SSW 3.5 mph - N/A   Scattered Clouds
9:00 AM 69.8 °F 68.0 °F 94% 29.80 in 3.1 mi SSW 6.9 mph - N/A   Mostly Cloudy
9:30 AM 69.8 °F 68.0 °F 94% 29.80 in 3.1 mi SSW 5.8 mph - N/A   Mostly Cloudy
10:00 AM 69.8 °F 66.2 °F 88% 29.80 in 3.7 mi SW 3.5 mph - N/A   Mostly Cloudy
10:30 AM 69.8 °F 68.0 °F 94% 29.77 in 4.3 mi SSW 5.8 mph - N/A   Mostly Cloudy
11:00 AM 69.8 °F 68.0 °F 94% 29.77 in 4.3 mi SW 5.8 mph - N/A   Mostly Cloudy
11:30 AM 69.8 °F 68.0 °F 94% 29.77 in 5.0 mi SW 8.1 mph - N/A   Mostly Cloudy
12:00 PM 69.8 °F 68.0 °F 94% 29.74 in 5.6 mi SW 8.1 mph - N/A   Mostly Cloudy
12:30 PM 71.6 °F 68.0 °F 88% 29.74 in 6.2 mi SW 11.5 mph - N/A   Scattered Clouds
1:00 PM 71 °F 65 °F 75% 29.75 in 7 mi SW 12.7 mph - -   Mostly Cloudy
1:00 PM 71.6 °F 66.2 °F 83% 29.74 in 6.2 mi SW 11.5 mph - N/A   Scattered Clouds
1:30 PM 69.8 °F 66.2 °F 88% 29.74 in 6.2 mi SW 12.7 mph - N/A   Mostly Cloudy
2:00 PM 69.8 °F 66.2 °F 88% 29.71 in 6.2 mi SW 8.1 mph - N/A   Mostly Cloudy
2:30 PM 69.8 °F 66.2 °F 88% 29.71 in 6.2 mi SW 9.2 mph - N/A   Mostly Cloudy
3:30 PM 69.8 °F 66.2 °F 88% 29.71 in 6.2 mi WSW 8.1 mph - N/A   Mostly Cloudy
4:00 PM 69.8 °F 68.0 °F 94% 29.71 in 6.2 mi WSW 9.2 mph - N/A   Scattered Clouds
4:30 PM 69.8 °F 66.2 °F 88% 29.71 in 6.2 mi WSW 9.2 mph - N/A   Scattered Clouds
5:00 PM 69.8 °F 66.2 °F 88% 29.68 in 6.2 mi WSW 9.2 mph - N/A   Scattered Clouds
5:30 PM 69.8 °F 66.2 °F 88% 29.68 in 6.2 mi West 8.1 mph - N/A   Scattered Clouds
6:00 PM 69.8 °F 66.2 °F 88% 29.71 in 6.2 mi WSW 10.4 mph - N/A Rain Light Rain
6:30 PM 69.8 °F 66.2 °F 88% 29.68 in 6.2 mi WSW 9.2 mph - N/A Rain Light Rain
7:00 PM 69 °F 64 °F 78% 29.71 in 7 mi WSW 16.1 mph - - Rain Light Rain
7:00 PM 69.8 °F 66.2 °F 88% 29.68 in 6.2 mi WSW 11.5 mph - N/A Rain Light Rain
7:30 PM 69.8 °F 66.2 °F 88% 29.68 in 6.2 mi WSW 10.4 mph - N/A   Scattered Clouds
8:00 PM 69.8 °F 66.2 °F 88% 29.71 in 6.2 mi WSW 12.7 mph - N/A   Scattered Clouds
8:30 PM 69.8 °F 66.2 °F 88% 29.68 in 6.2 mi SW 8.1 mph - N/A   Scattered Clouds
9:00 PM 69.8 °F 66.2 °F 88% 29.68 in 6.2 mi SW 11.5 mph - N/A   Scattered Clouds
9:30 PM 69.8 °F 66.2 °F 88% 29.68 in 6.2 mi SW 8.1 mph - N/A   Scattered Clouds
10:00 PM 69.8 °F 66.2 °F 88% 29.68 in 6.2 mi SW 9.2 mph - N/A   Partly Cloudy
10:30 PM 69.8 °F 64.4 °F 83% 29.68 in 6.2 mi SW 6.9 mph - N/A   Partly Cloudy
11:00 PM 71.6 °F 64.4 °F 78% 29.71 in 6.2 mi SW 6.9 mph - N/A   Partly Cloudy
11:30 PM 69.8 °F 64.4 °F 83% 29.71 in 6.2 mi SW 10.4 mph - N/A   Partly Cloudy